Location: ?????????
(38.5999°N, 22.7695°E)
Time: 11:28:13
(UTC+00:00)

CZ-4 R/B - Pass Details

Date: 23 May 2024
Orbit: 678 x 748 km, 98.6° (Epoch: 18 June)

Event Time Altitude Azimuth Distance (km) Brightness Sun altitude
Rises 02:04:31 0° 9° (N) 3,062 7.9 -11.7°
Reaches altitude 10° 02:06:46 10° 6° (N) 2,150 7.0 -11.3°
Maximum altitude 02:11:23 61° 287° (WNW) 797 3.9 -10.6°
Drops below altitude 10° 02:16:04 10° 207° (SSW) 2,175 5.8 -9.9°
Enters shadow 02:16:08 10° 207° (SSW) 2,203 5.8 -9.9°
